SCP
-0 -0 -0 -0 -0 -0 -0 -0 -0 -0 0 0 -0 -0 -0 0 0 0 0 0 0 0 0 -0 0 0 0 0 0 0 -0 -0 0 0 -0 -0 -0 0 0 -0 0 0 0 -0 -0
0 0 0 0 0 0 0 0 -0 -0 -0 -0 -0 0 -0 0 0 0 0 0 0 0 0 -0 0 0 0 0 0 0 0 -0 0 0 0 0 0 -0 0 -0 0 0 -0 -0 -0
0 0 0 0 0 0 0 0 0 0 0 0 0 0 0 0 0 0 0 -0 -0 0 0 0 0 0 0 0 0 0 0 0 0 0 0 0 -0 0 0 0 0 -0 -0 -0 -0
-0 -0 -0 0 0 0 0 0 0 0 -0 -0 -0 0 0 0 0 0 0 -0 -0 0 0 0 0 0 0 0 0 0 0 0 0 0 0 -0 0 0 -0 -0 -0 -0 -0 -0 -0
-0 -0 -0 -0 -0 -0 0 0 0 -0 -0 -0 -0 -0 0 0 0 0 0 0 0 0 0 0 0 0 0 0 0 0 0 0 0 0 0 0 0 0 -0 0 -0 -0 -0 -0 -0
-0 -0 -0 -0 0 -0 0 0 0 -0 -0 -0 -0 0 0 0 0 0 0 0 0 0 0 0 0 0 0 0 0 0 -0 0 0 0 0 0 0 0 0 -0 -0 -0 -0 -0 -0
0 0 0 0 0 0 0 0 0 -0 -0 0 -0 0 0 0 0 0 0 0 0 0 0 0 0 0 0 0 0 0 0 0 0 0 0 0 0 0 -0 -0 -0 -0 -0 -0 -0
0 0 0 0 0 0 0 -0 -0 0 0 0 -0 -0 0 0 0 0 0 0 0 0 0 0 0 0 0 0 0 0 0 0 0 0 0 0 0 0 -0 -0 -0 -0 -0 -0 -0
0 0 0 0 0 0 0 -0 -0 0 0 -0 0 0 0 0 0 0 0 0 0 0 0 0 0 0 0 0 0 0 0 0 0 0 0 0 -0 0 0 -0 -0 -0 -0 -0 -0
0 0 0 0 0 0 0 -0 0 0 0 -0 0 0 0 0 0 0 0 0 0 0 0 0 0 0 0 0 0 0 0 0 0 0 0 0 0 0 0 -0 -0 -0 -0 -0 -0
0 0 0 0 0 0 0 -0 -0 0 0 0 0 0 0 0 0 0 0 0 0 0 0 0 0 0 0 0 0 0 0 0 0 0 0 0 0 0 0 0 -0 -0 -0 -0 -0
0 0 0 0 0 -0 0 -0 -0 0 0 0 -0 0 0 0 0 0 0 0 0 0 0 0 0 0 0 0 0 0 0 0 0 0 0 0 0 0 0 0 0 -0 -0 -0 -0
0 0 0 0 0 0 0 0 0 0 0 0 0 0 0 0 0 0 0 0 0 0 0 0 0 0 0 0 0 0 0 0 0 0 0 0 0 0 0 0 0 0 0 -0 -0
0 0 0 0 0 0 0 0 0 0 0 0 0 0 0 0 0 0 0 0 0 0 0 0 0 0 0 0 0 0 0 0 0 0 0 0 0 0 0 0 0 0 -0 -0 -0
0 -0 0 0 0 0 0 0 0 0 0 0 0 0 0 0 0 0 0 0 0 0 0 0 0 0 0 0 0 0 0 0 0 0 0 0 0 -0 0 -0 0 -0 -0 -0 -0
-0 0 0 0 0 0 0 0 0 0 0 0 0 0 0 0 0 0 0 0 0 0 0 0 0 0 0 0 0 0 0 0 0 0 0 0 0 -0 0 -0 0 0 0 0 -0
-0 -0 0 0 0 0 0 0 0 0 0 0 0 0 -0 0 0 0 0 0 0 0 0 0 0 0 0 0 0 0 0 0 0 0 0 0 0 -0 -0 0 0 0 -0 -0 -0
-0 -0 0 0 0 0 0 0 0 0 0 0 0 0 0 0 0 0 0 0 0 0 0 0 0 0 0 0 0 0 0 0 0 0 0 0 0 -0 -0 0 0 0 0 0 0
0 0 0 0 -0 0 0 0 0 0 0 0 0 0 0 0 0 -0 0 -0 0 0 0 0 0 0 0 0 0 0 0 0 0 0 0 0 0 -0 -0 0 -0 0 0 0 0
0 0 0 0 0 0 0 0 0 0 0 0 0 0 0 0 0 0 0 0 -0 0 0 0 0 0 0 0 0 0 0 0 0 0 0 0 0 -0 -0 0 0 0 0 0 0
0 0 0 0 0 0 0 0 0 0 0 0 0 0 0 0 0 -0 0 0 0 0 0 0 0 0 0 0 0 0 0 0 0 0 0 0 0 0 -0 -0 0 0 0 0 0
0 0 0 0 0 0 0 0 0 0 0 0 0 0 0 0 0 0 0 0 0 0 0 0 0 0 0 0 0 0 0 0 0 0 0 0 0 0 0 0 0 -0 0 0 0
0 0 0 0 0 0 0 0 0 0 0 0 0 0 0 0 0 0 0 0 0 0 0 0 0 0 0 0 0 0 0 0 0 0 0 0 0 -0 0 0 0 0 0 0 0
0 0 0 0 0 0 0 0 0 0 0 0 0 0 0 0 0 0 0 0 0 0 0 0 0 0 0 0 0 0 0 0 0 0 0 0 0 0 -0 0 0 0 0 0 0
0 0 0 0 0 0 0 0 0 0 0 0 0 0 0 0 0 0 0 0 0 0 0 0 0 0 0 0 0 0 0 0 0 0 0 0 0 0 0 0 0 0 -0 -0 0
0 0 0 0 0 0 0 0 0 0 0 0 0 0 0 0 0 0 0 -0 0 0 0 0 0 0 0 0 0 0 0 0 0 0 0 0 0 0 0 0 0 0 0 -0 -0
0 0 0 0 0 0 0 0 0 0 0 0 0 0 0 0 0 0 0 0 0 0 0 0 0 -0 0 0 0 0 0 0 0 0 0 0 0 0 0 0 0 0 0 0 0
Wind_Speed_500mb
44 44 45 44 44 45 43 38 38 38 38 39 38 32 36 31 28 34 46 36 41 19 46 47 40 33 29 25 14 6 3 3 5 8 7 20 7 15 16 36 15 28 25 61 80
46 46 47 47 47 46 45 42 36 39 43 43 39 37 34 35 33 41 28 34 28 41 49 63 52 37 16 13 13 7 5 11 8 4 5 9 14 21 13 30 10 20 34 81 86
49 50 49 47 46 46 46 42 38 40 39 44 41 37 34 32 30 1 7 19 49 60 44 51 52 37 14 16 16 12 9 8 5 6 6 10 15 19 29 8 24 58 76 96 91
55 55 54 52 49 46 44 41 39 43 44 53 45 37 28 23 5 5 6 9 63 61 55 59 62 29 11 11 24 6 18 22 6 7 18 7 25 13 33 12 30 52 83 108 94
57 57 58 56 54 49 43 41 40 44 49 47 38 26 17 14 17 19 9 5 65 68 68 65 69 24 14 16 9 12 9 10 28 33 26 21 26 13 32 4 25 59 92 90 84
58 56 57 56 57 52 45 40 40 47 53 37 29 25 14 6 11 13 16 8 64 73 67 64 48 35 22 9 16 16 33 34 34 42 26 19 5 20 15 24 59 80 81 77 85
62 62 62 59 61 56 44 39 40 45 44 30 36 31 26 25 12 12 2 14 51 69 71 64 11 40 16 2 24 22 8 11 15 10 10 24 4 0 38 50 71 71 70 66 67
66 68 63 62 61 58 42 38 39 42 25 39 34 25 12 5 13 20 6 17 44 62 58 62 19 38 8 3 4 12 9 1 8 16 14 14 9 9 44 61 63 66 67 65 64
69 70 67 61 61 53 40 43 37 19 15 34 24 23 8 8 13 3 20 29 33 60 36 44 30 9 10 7 8 9 8 12 10 15 11 13 6 16 48 51 57 64 68 65 61
70 70 68 61 54 41 44 38 30 10 23 15 23 11 15 32 33 18 6 24 38 55 33 18 20 4 4 8 13 10 6 6 12 11 14 12 7 23 43 48 50 58 61 64 67
71 69 71 64 47 36 34 19 21 5 41 10 33 15 32 40 10 10 10 34 31 37 15 16 9 40 32 11 8 9 8 10 8 12 12 19 14 30 43 41 48 55 60 64 71
74 75 73 60 33 30 27 23 24 27 22 18 6 24 25 23 17 32 11 21 18 10 12 8 29 16 11 13 13 13 4 6 10 13 15 13 26 19 32 47 59 61 64 67 63
72 71 70 47 17 25 21 35 42 27 4 15 8 21 20 14 7 36 20 3 7 12 16 16 11 25 23 13 20 18 21 8 3 9 5 7 7 12 19 35 42 50 56 59 72
67 69 57 26 10 30 18 44 39 10 8 10 11 18 28 13 3 30 31 8 8 21 16 13 20 28 24 20 23 19 19 24 10 7 7 12 9 12 19 35 38 54 61 64 69
61 56 40 18 17 31 42 49 19 9 4 8 13 15 26 17 24 35 23 3 3 7 12 15 12 18 19 34 24 13 24 24 15 12 8 6 2 13 24 28 38 50 67 70 77
56 34 28 20 22 31 38 39 10 9 7 7 10 13 15 17 19 21 24 14 7 5 4 11 8 8 18 20 31 12 6 7 5 9 20 24 15 11 14 31 37 48 67 75 78
55 33 16 26 48 31 39 12 9 5 11 9 8 10 6 13 16 15 9 23 10 9 15 13 6 4 3 12 17 15 11 3 5 11 23 17 12 30 9 23 34 46 71 81 82
56 42 10 25 29 31 36 7 5 7 7 8 9 3 7 9 9 18 7 8 13 8 7 8 4 5 13 2 16 17 22 11 15 7 18 10 18 26 28 38 45 55 71 71 76
52 24 2 37 44 28 18 10 2 3 9 11 12 5 8 8 6 7 7 4 7 11 9 8 11 8 5 5 3 9 27 17 6 2 2 8 15 18 10 14 15 31 47 69 83
47 9 25 45 30 3 10 5 7 6 11 7 1 4 4 5 2 4 1 4 6 7 0 7 8 4 10 11 16 13 8 6 2 19 16 8 12 14 18 30 18 15 43 65 79
32 6 36 36 12 17 7 3 5 18 21 7 5 4 2 1 3 5 8 3 4 4 5 4 5 14 10 8 4 10 8 6 7 13 19 7 16 12 13 18 25 27 57 64 75
20 6 43 37 17 8 4 10 12 11 17 8 6 6 4 5 5 5 12 6 11 5 4 2 7 8 17 12 11 7 6 5 6 11 8 9 22 9 17 15 17 21 56 65 70
21 14 29 31 8 7 12 9 6 10 10 12 12 9 10 6 7 3 4 6 13 5 8 7 2 6 16 6 8 8 4 8 7 6 13 14 11 14 23 11 24 33 42 62 69
13 8 17 27 15 5 11 7 9 18 7 8 7 11 11 10 0 9 5 4 4 7 9 7 5 10 10 2 7 10 13 6 4 3 11 11 9 6 17 16 17 31 29 23 32
13 3 7 6 11 11 3 6 9 11 11 2 4 5 4 5 8 8 4 12 12 14 7 7 7 7 21 27 21 28 37 21 10 19 8 13 10 15 20 18 12 20 24 31 38
7 5 5 4 7 11 7 6 13 8 5 9 6 9 11 10 13 11 9 4 11 5 5 6 5 2 17 20 28 31 29 25 23 30 27 33 40 13 10 8 23 30 34 35 35
9 4 2 4 6 7 5 6 11 24 12 11 14 11 10 18 19 28 39 34 17 10 8 7 4 4 11 9 11 13 21 16 19 18 11 9 10 24 8 20 30 34 36 36 37
Wind_Direction_500mb
10 6 2 358 356 355 355 354 350 347 340 335 327 323 316 304 284 268 259 266 221 194 180 174 173 173 175 190 186 234 275 253 245 194 176 162 158 123 148 139 162 178 161 168 165
7 4 359 355 352 351 351 349 348 344 340 336 331 325 321 310 296 280 294 246 199 187 185 185 174 166 172 190 200 189 195 220 220 226 38 162 139 139 131 146 92 130 155 163 166
5 2 357 353 349 346 345 342 338 338 338 332 324 325 317 318 311 94 305 225 191 196 195 188 181 162 170 175 200 189 214 223 259 254 333 126 146 160 142 214 179 154 156 163 167
10 6 0 352 346 342 341 334 329 330 327 332 322 306 303 306 283 251 306 255 183 189 184 174 168 158 153 197 205 220 235 247 288 309 331 195 161 156 173 194 207 186 172 167 170
2 1 1 355 347 341 338 329 326 327 324 333 339 325 295 277 260 269 255 194 176 179 178 173 170 157 174 185 170 227 280 243 258 278 281 240 190 185 195 223 172 168 164 167 172
358 357 356 354 346 343 336 325 323 325 327 325 334 346 299 253 259 276 229 191 186 183 182 184 188 176 177 202 182 209 235 283 285 277 278 203 190 175 149 163 153 160 165 171 177
356 355 354 349 345 343 337 326 323 324 330 329 325 323 279 267 207 92 117 198 199 193 189 190 203 179 161 107 237 245 302 318 256 256 239 146 14 127 156 160 151 160 167 175 182
355 351 355 347 343 343 344 333 327 322 331 334 334 337 257 335 220 239 316 206 197 193 196 194 187 184 199 242 353 171 130 194 281 185 216 153 227 131 156 153 159 165 173 178 183
354 348 354 350 345 345 346 339 327 332 332 344 347 337 352 54 43 212 345 205 186 192 181 204 186 213 220 94 12 355 198 191 299 197 175 187 208 165 166 164 168 172 178 183 186
352 347 350 352 350 350 346 344 343 1 351 3 355 335 353 328 317 308 1 186 174 183 178 155 184 146 82 132 204 197 199 214 195 210 176 179 192 166 174 169 176 182 183 188 192
352 347 348 351 352 355 354 4 4 20 332 309 304 283 320 338 15 92 82 157 149 153 166 173 153 208 197 156 186 187 195 206 231 237 157 213 187 185 179 179 182 187 188 194 202
352 345 345 347 356 7 18 53 28 333 309 0 335 318 349 350 39 48 78 165 144 156 124 115 220 202 176 182 193 240 243 269 293 267 187 215 232 176 185 200 192 188 191 195 198
351 340 343 350 32 19 24 13 347 334 295 305 360 352 343 340 23 18 38 335 172 147 178 173 231 170 177 172 197 229 231 218 232 333 230 101 286 159 200 203 206 210 206 197 197
350 338 347 9 59 18 5 344 332 300 53 288 346 21 347 334 63 3 359 190 195 190 162 229 250 177 183 189 178 220 206 240 231 267 231 153 257 197 192 200 204 207 206 204 203
351 345 353 28 10 354 337 344 327 156 16 17 357 12 13 59 343 356 357 98 91 183 141 219 200 186 191 215 182 227 173 211 209 226 289 237 196 257 188 204 209 209 209 208 209
349 346 10 10 356 345 341 343 123 48 243 5 14 353 9 32 355 333 13 39 48 325 348 220 262 208 206 194 198 166 175 160 147 176 238 232 203 241 185 207 215 215 212 209 210
343 340 359 359 352 341 339 334 44 125 342 8 334 7 43 356 346 7 42 48 37 35 14 340 257 231 228 185 195 163 116 246 228 201 234 199 226 235 217 205 209 206 213 211 210
343 339 266 345 337 337 341 54 156 41 339 335 347 8 66 21 356 353 37 39 24 69 74 21 218 19 3 269 197 186 171 172 202 195 221 174 223 235 216 232 224 221 217 208 207
345 2 230 326 312 322 342 54 110 357 281 309 325 62 4 346 55 52 38 109 21 4 95 27 268 337 182 295 357 218 207 177 109 182 6 207 275 285 224 234 209 195 188 198 204
346 15 11 345 347 222 71 121 156 27 317 349 297 32 169 313 81 55 69 95 127 11 160 179 309 285 300 301 222 195 204 121 303 218 233 255 248 235 191 225 230 181 197 203 207
354 51 352 354 17 63 94 344 328 8 3 341 339 341 136 167 250 220 179 121 130 303 66 135 117 296 345 207 154 15 219 243 176 186 225 154 248 215 221 220 205 211 215 211 209
7 30 355 2 49 35 56 309 322 10 356 344 355 35 52 342 288 255 200 143 160 147 111 148 147 268 251 265 342 171 247 9 236 240 241 184 241 230 235 246 239 241 220 226 225
356 340 9 11 66 10 328 321 317 341 29 13 15 12 1 354 319 278 356 118 144 130 163 169 302 319 309 73 37 75 54 76 242 266 223 204 254 205 262 248 239 253 236 232 229
360 13 21 48 64 84 5 322 341 1 74 32 8 48 14 355 208 311 310 20 138 204 199 132 183 204 226 323 359 315 300 79 95 308 312 224 247 279 239 249 258 239 259 253 238
23 63 36 354 6 343 16 335 345 7 358 40 70 86 11 306 325 261 255 5 317 265 76 120 206 277 268 269 266 270 281 291 202 226 219 298 290 268 262 263 294 311 309 294 271
40 25 3 324 0 340 30 357 335 346 298 317 198 233 278 241 234 285 313 160 252 36 86 36 279 298 287 264 235 250 262 273 246 258 233 250 277 241 310 47 20 358 341 311 292
49 32 12 3 335 331 2 330 321 315 269 259 314 321 278 267 270 265 266 258 239 182 151 151 200 268 262 283 256 256 234 200 101 34 322 208 284 297 358 43 22 1 351 335 306
Wind_Speed_850mb
44 44 45 44 44 45 43 38 38 38 38 39 38 32 36 31 28 34 46 36 41 19 46 47 40 33 29 25 14 6 3 3 5 8 7 20 7 15 16 36 15 28 25 61 80
46 46 47 47 47 46 45 42 36 39 43 43 39 37 34 35 33 41 28 34 28 41 49 63 52 37 16 13 13 7 5 11 8 4 5 9 14 21 13 30 10 20 34 81 86
49 50 49 47 46 46 46 42 38 40 39 44 41 37 34 32 30 1 7 19 49 60 44 51 52 37 14 16 16 12 9 8 5 6 6 10 15 19 29 8 24 58 76 96 91
55 55 54 52 49 46 44 41 39 43 44 53 45 37 28 23 5 5 6 9 63 61 55 59 62 29 11 11 24 6 18 22 6 7 18 7 25 13 33 12 30 52 83 108 94
57 57 58 56 54 49 43 41 40 44 49 47 38 26 17 14 17 19 9 5 65 68 68 65 69 24 14 16 9 12 9 10 28 33 26 21 26 13 32 4 25 59 92 90 84
58 56 57 56 57 52 45 40 40 47 53 37 29 25 14 6 11 13 16 8 64 73 67 64 48 35 22 9 16 16 33 34 34 42 26 19 5 20 15 24 59 80 81 77 85
62 62 62 59 61 56 44 39 40 45 44 30 36 31 26 25 12 12 2 14 51 69 71 64 11 40 16 2 24 22 8 11 15 10 10 24 4 0 38 50 71 71 70 66 67
66 68 63 62 61 58 42 38 39 42 25 39 34 25 12 5 13 20 6 17 44 62 58 62 19 38 8 3 4 12 9 1 8 16 14 14 9 9 44 61 63 66 67 65 64
69 70 67 61 61 53 40 43 37 19 15 34 24 23 8 8 13 3 20 29 33 60 36 44 30 9 10 7 8 9 8 12 10 15 11 13 6 16 48 51 57 64 68 65 61
70 70 68 61 54 41 44 38 30 10 23 15 23 11 15 32 33 18 6 24 38 55 33 18 20 4 4 8 13 10 6 6 12 11 14 12 7 23 43 48 50 58 61 64 67
71 69 71 64 47 36 34 19 21 5 41 10 33 15 32 40 10 10 10 34 31 37 15 16 9 40 32 11 8 9 8 10 8 12 12 19 14 30 43 41 48 55 60 64 71
74 75 73 60 33 30 27 23 24 27 22 18 6 24 25 23 17 32 11 21 18 10 12 8 29 16 11 13 13 13 4 6 10 13 15 13 26 19 32 47 59 61 64 67 63
72 71 70 47 17 25 21 35 42 27 4 15 8 21 20 14 7 36 20 3 7 12 16 16 11 25 23 13 20 18 21 8 3 9 5 7 7 12 19 35 42 50 56 59 72
67 69 57 26 10 30 18 44 39 10 8 10 11 18 28 13 3 30 31 8 8 21 16 13 20 28 24 20 23 19 19 24 10 7 7 12 9 12 19 35 38 54 61 64 69
61 56 40 18 17 31 42 49 19 9 4 8 13 15 26 17 24 35 23 3 3 7 12 15 12 18 19 34 24 13 24 24 15 12 8 6 2 13 24 28 38 50 67 70 77
56 34 28 20 22 31 38 39 10 9 7 7 10 13 15 17 19 21 24 14 7 5 4 11 8 8 18 20 31 12 6 7 5 9 20 24 15 11 14 31 37 48 67 75 78
55 33 16 26 48 31 39 12 9 5 11 9 8 10 6 13 16 15 9 23 10 9 15 13 6 4 3 12 17 15 11 3 5 11 23 17 12 30 9 23 34 46 71 81 82
56 42 10 25 29 31 36 7 5 7 7 8 9 3 7 9 9 18 7 8 13 8 7 8 4 5 13 2 16 17 22 11 15 7 18 10 18 26 28 38 45 55 71 71 76
52 24 2 37 44 28 18 10 2 3 9 11 12 5 8 8 6 7 7 4 7 11 9 8 11 8 5 5 3 9 27 17 6 2 2 8 15 18 10 14 15 31 47 69 83
47 9 25 45 30 3 10 5 7 6 11 7 1 4 4 5 2 4 1 4 6 7 0 7 8 4 10 11 16 13 8 6 2 19 16 8 12 14 18 30 18 15 43 65 79
32 6 36 36 12 17 7 3 5 18 21 7 5 4 2 1 3 5 8 3 4 4 5 4 5 14 10 8 4 10 8 6 7 13 19 7 16 12 13 18 25 27 57 64 75
20 6 43 37 17 8 4 10 12 11 17 8 6 6 4 5 5 5 12 6 11 5 4 2 7 8 17 12 11 7 6 5 6 11 8 9 22 9 17 15 17 21 56 65 70
21 14 29 31 8 7 12 9 6 10 10 12 12 9 10 6 7 3 4 6 13 5 8 7 2 6 16 6 8 8 4 8 7 6 13 14 11 14 23 11 24 33 42 62 69
13 8 17 27 15 5 11 7 9 18 7 8 7 11 11 10 0 9 5 4 4 7 9 7 5 10 10 2 7 10 13 6 4 3 11 11 9 6 17 16 17 31 29 23 32
13 3 7 6 11 11 3 6 9 11 11 2 4 5 4 5 8 8 4 12 12 14 7 7 7 7 21 27 21 28 37 21 10 19 8 13 10 15 20 18 12 20 24 31 38
7 5 5 4 7 11 7 6 13 8 5 9 6 9 11 10 13 11 9 4 11 5 5 6 5 2 17 20 28 31 29 25 23 30 27 33 40 13 10 8 23 30 34 35 35
9 4 2 4 6 7 5 6 11 24 12 11 14 11 10 18 19 28 39 34 17 10 8 7 4 4 11 9 11 13 21 16 19 18 11 9 10 24 8 20 30 34 36 36 37
Wind_Direction_850mb
10 6 2 358 356 355 355 354 350 347 340 335 327 323 316 304 284 268 259 266 221 194 180 174 173 173 175 190 186 234 275 253 245 194 176 162 158 123 148 139 162 178 161 168 165
7 4 359 355 352 351 351 349 348 344 340 336 331 325 321 310 296 280 294 246 199 187 185 185 174 166 172 190 200 189 195 220 220 226 38 162 139 139 131 146 92 130 155 163 166
5 2 357 353 349 346 345 342 338 338 338 332 324 325 317 318 311 94 305 225 191 196 195 188 181 162 170 175 200 189 214 223 259 254 333 126 146 160 142 214 179 154 156 163 167
10 6 0 352 346 342 341 334 329 330 327 332 322 306 303 306 283 251 306 255 183 189 184 174 168 158 153 197 205 220 235 247 288 309 331 195 161 156 173 194 207 186 172 167 170
2 1 1 355 347 341 338 329 326 327 324 333 339 325 295 277 260 269 255 194 176 179 178 173 170 157 174 185 170 227 280 243 258 278 281 240 190 185 195 223 172 168 164 167 172
358 357 356 354 346 343 336 325 323 325 327 325 334 346 299 253 259 276 229 191 186 183 182 184 188 176 177 202 182 209 235 283 285 277 278 203 190 175 149 163 153 160 165 171 177
356 355 354 349 345 343 337 326 323 324 330 329 325 323 279 267 207 92 117 198 199 193 189 190 203 179 161 107 237 245 302 318 256 256 239 146 14 127 156 160 151 160 167 175 182
355 351 355 347 343 343 344 333 327 322 331 334 334 337 257 335 220 239 316 206 197 193 196 194 187 184 199 242 353 171 130 194 281 185 216 153 227 131 156 153 159 165 173 178 183
354 348 354 350 345 345 346 339 327 332 332 344 347 337 352 54 43 212 345 205 186 192 181 204 186 213 220 94 12 355 198 191 299 197 175 187 208 165 166 164 168 172 178 183 186
352 347 350 352 350 350 346 344 343 1 351 3 355 335 353 328 317 308 1 186 174 183 178 155 184 146 82 132 204 197 199 214 195 210 176 179 192 166 174 169 176 182 183 188 192
352 347 348 351 352 355 354 4 4 20 332 309 304 283 320 338 15 92 82 157 149 153 166 173 153 208 197 156 186 187 195 206 231 237 157 213 187 185 179 179 182 187 188 194 202
352 345 345 347 356 7 18 53 28 333 309 0 335 318 349 350 39 48 78 165 144 156 124 115 220 202 176 182 193 240 243 269 293 267 187 215 232 176 185 200 192 188 191 195 198
351 340 343 350 32 19 24 13 347 334 295 305 360 352 343 340 23 18 38 335 172 147 178 173 231 170 177 172 197 229 231 218 232 333 230 101 286 159 200 203 206 210 206 197 197
350 338 347 9 59 18 5 344 332 300 53 288 346 21 347 334 63 3 359 190 195 190 162 229 250 177 183 189 178 220 206 240 231 267 231 153 257 197 192 200 204 207 206 204 203
351 345 353 28 10 354 337 344 327 156 16 17 357 12 13 59 343 356 357 98 91 183 141 219 200 186 191 215 182 227 173 211 209 226 289 237 196 257 188 204 209 209 209 208 209
349 346 10 10 356 345 341 343 123 48 243 5 14 353 9 32 355 333 13 39 48 325 348 220 262 208 206 194 198 166 175 160 147 176 238 232 203 241 185 207 215 215 212 209 210
343 340 359 359 352 341 339 334 44 125 342 8 334 7 43 356 346 7 42 48 37 35 14 340 257 231 228 185 195 163 116 246 228 201 234 199 226 235 217 205 209 206 213 211 210
343 339 266 345 337 337 341 54 156 41 339 335 347 8 66 21 356 353 37 39 24 69 74 21 218 19 3 269 197 186 171 172 202 195 221 174 223 235 216 232 224 221 217 208 207
345 2 230 326 312 322 342 54 110 357 281 309 325 62 4 346 55 52 38 109 21 4 95 27 268 337 182 295 357 218 207 177 109 182 6 207 275 285 224 234 209 195 188 198 204
346 15 11 345 347 222 71 121 156 27 317 349 297 32 169 313 81 55 69 95 127 11 160 179 309 285 300 301 222 195 204 121 303 218 233 255 248 235 191 225 230 181 197 203 207
354 51 352 354 17 63 94 344 328 8 3 341 339 341 136 167 250 220 179 121 130 303 66 135 117 296 345 207 154 15 219 243 176 186 225 154 248 215 221 220 205 211 215 211 209
7 30 355 2 49 35 56 309 322 10 356 344 355 35 52 342 288 255 200 143 160 147 111 148 147 268 251 265 342 171 247 9 236 240 241 184 241 230 235 246 239 241 220 226 225
356 340 9 11 66 10 328 321 317 341 29 13 15 12 1 354 319 278 356 118 144 130 163 169 302 319 309 73 37 75 54 76 242 266 223 204 254 205 262 248 239 253 236 232 229
360 13 21 48 64 84 5 322 341 1 74 32 8 48 14 355 208 311 310 20 138 204 199 132 183 204 226 323 359 315 300 79 95 308 312 224 247 279 239 249 258 239 259 253 238
23 63 36 354 6 343 16 335 345 7 358 40 70 86 11 306 325 261 255 5 317 265 76 120 206 277 268 269 266 270 281 291 202 226 219 298 290 268 262 263 294 311 309 294 271
40 25 3 324 0 340 30 357 335 346 298 317 198 233 278 241 234 285 313 160 252 36 86 36 279 298 287 264 235 250 262 273 246 258 233 250 277 241 310 47 20 358 341 311 292
49 32 12 3 335 331 2 330 321 315 269 259 314 321 278 267 270 265 266 258 239 182 151 151 200 268 262 283 256 256 234 200 101 34 322 208 284 297 358 43 22 1 351 335 306